GW2005 Weather Reports


time (UTC)temp
C
wind
direction
speed
KPH
gust
KPH
rain 1hr
cm
rain 24hr
cm
rain mn
cm
humidity
%
barometer
mb
20260507225641 14 286 4.8 16.1 0.00 0.48 0.41 73 1009.8
20260507225409 14 236 4.8 11.3 0.00 0.48 0.41 73 1009.6
20260507224636 14 169 4.8 11.3 0.00 0.48 0.41 73 1009.5
20260507224407 14 219 4.8 11.3 0.00 0.48 0.41 72 1009.5
20260507223901 14 222 4.8 9.7 0.00 0.48 0.41 73 1009.6
20260507223131 14 127 4.8 11.3 0.00 0.48 0.41 74 1009.7
20260507222630 14 130 4.8 11.3 0.00 0.48 0.41 73 1009.6
20260507222128 14 196 4.8 20.9 0.00 0.48 0.41 73 1009.5
20260507221625 14 212 6.4 20.9 0.00 0.48 0.41 72 1009.4
20260507221124 15 250 3.2 11.3 0.00 0.48 0.41 72 1009.2
20260507220624 15 204 3.2 8.0 0.00 0.48 0.41 71 1009.1
20260507220124 15 183 3.2 9.7 0.00 0.48 0.41 71 1009.4
20260507215626 15 110 4.8 9.7 0.00 0.48 0.41 70 1009.2
20260507215124 15 168 4.8 9.7 0.00 0.48 0.41 69 1009.5
20260507214855 15 219 4.8 12.9 0.00 0.48 0.41 69 1009.4
20260507214124 15 233 4.8 12.9 0.00 0.48 0.41 70 1009.2
20260507213624 16 252 4.8 12.9 0.00 0.48 0.41 70 1009.2
20260507213124 16 237 3.2 11.3 0.00 0.48 0.41 70 1009.2
20260507212623 15 156 3.2 9.7 0.00 0.48 0.41 69 1009.2
20260507212124 15 231 4.8 9.7 0.00 0.48 0.41 71 1009.2
20260507211624 15 227 4.8 14.5 0.00 0.48 0.41 69 1009.1
20260507211124 15 236 3.2 14.5 0.00 0.48 0.41 69 1009.1
20260507210625 15 225 3.2 11.3 0.00 0.48 0.41 71 1009.2
20260507210124 15 192 4.8 11.3 0.00 0.48 0.41 70 1009.2
20260507205624 15 186 4.8 14.5 0.00 0.48 0.41 71 1009.1
20260507205124 15 192 3.2 14.5 0.00 0.48 0.41 71 1009.2
20260507204624 15 235 3.2 12.9 0.00 0.48 0.41 70 1009.2
20260507204124 15 209 4.8 12.9 0.00 0.48 0.41 71 1009.4
20260507203624 15 222 4.8 12.9 0.00 0.48 0.41 69 1009.5
20260507203124 15 107 4.8 12.9 0.00 0.48 0.41 70 1009.5
20260507202622 15 208 4.8 12.9 0.00 0.48 0.41 70 1009.6
20260507202354 15 234 3.2 9.7 0.00 0.48 0.41 72 1009.7
20260507201623 15 205 4.8 14.5 0.00 0.48 0.41 72 1009.7
20260507201354 15 142 4.8 14.5 0.00 0.48 0.41 71 1009.5
20260507200623 15 181 4.8 11.3 0.00 0.48 0.41 70 1009.5
20260507200123 15 161 4.8 12.9 0.00 0.48 0.41 72 1009.6
20260507195625 15 213 4.8 12.9 0.00 0.48 0.41 69 1009.7
20260507195124 15 166 4.8 12.9 0.00 0.48 0.41 72 1009.7
20260507194622 15 202 3.2 11.3 0.00 0.48 0.41 71 1009.9
20260507194122 14 148 3.2 8.0 0.00 0.48 0.41 71 1009.9
20260507193623 14 213 3.2 9.7 0.00 0.48 0.41 71 1010.0
20260507193123 14 234 1.6 9.7 0.03 0.48 0.41 72 1009.9
20260507192621 14 57 1.6 4.8 0.03 0.48 0.41 71 1010.0
20260507192116 14 57 1.6 6.4 0.03 0.48 0.41 72 1010.4
20260507191616 14 213 1.6 9.7 0.03 0.48 0.41 73 1010.5
20260507191115 14 270 3.2 9.7 0.03 0.48 0.41 71 1010.4
20260507190615 14 215 1.6 8.0 0.03 0.48 0.41 74 1010.5
20260507190115 13 319 1.6 4.8 0.03 0.48 0.41 79 1010.3
20260507185614 13 43 1.6 4.8 0.03 0.48 0.41 79 1010.3
20260507185111 13 122 1.6 3.2 0.03 0.48 0.41 81 1010.3
20260507184603 13 181 1.6 4.8 0.03 0.48 0.41 80 1010.6
20260507184104 12 126 1.6 4.8 0.03 0.48 0.41 83 1010.6
20260507183604 12 144 1.6 4.8 0.03 0.48 0.41 85 1010.7
20260507183104 12 66 0.0 3.2 0.00 0.46 0.38 85 1010.4
20260507182604 12 134 0.0 3.2 0.00 0.46 0.38 80 1010.9
20260507182103 12 134 0.0 3.2 0.00 0.46 0.38 78 1011.1
20260507181603 12 139 1.6 3.2 0.00 0.46 0.38 80 1011.0
20260507181104 12 137 0.0 3.2 0.00 0.46 0.38 82 1011.0
20260507180601 12 124 0.0 3.2 0.00 0.46 0.38 82 1010.9
20260507175602 13 149 0.0 4.8 0.00 0.46 0.38 75 1011.1
20260507174833 13 164 0.0 4.8 0.00 0.46 0.38 76 1011.2
20260507174059 13 188 0.0 3.2 0.00 0.46 0.38 80 1011.0
20260507173829 12 131 0.0 3.2 0.00 0.46 0.38 80 1011.1
20260507173048 12 138 0.0 3.2 0.00 0.46 0.38 78 1011.1
20260507172541 12 332 1.6 3.2 0.00 0.46 0.38 74 1011.3
20260507172035 12 25 1.6 3.2 0.00 0.46 0.38 74 1011.3
20260507171525 12 25 1.6 4.8 0.00 0.46 0.38 79 1011.4
20260507171250 12 93 1.6 4.8 0.00 0.46 0.38 80 1011.4
20260507170514 12 103 1.6 4.8 0.03 0.46 0.38 80 1011.4
20260507170004 11 22 1.6 3.2 0.05 0.46 0.38 81 1011.6
20260507165458 11 26 1.6 4.8 0.05 0.46 0.38 85 1011.7
20260507164951 11 26 1.6 4.8 0.05 0.46 0.38 84 1011.7
20260507164437 11 27 1.6 4.8 0.05 0.46 0.38 83 1011.8
20260507164203 11 26 1.6 3.2 0.05 0.46 0.38 84 1011.9
20260507163424 11 27 0.0 3.2 0.05 0.46 0.38 88 1011.9
20260507162915 11 27 0.0 3.2 0.05 0.46 0.38 86 1011.9
20260507162409 11 27 0.0 3.2 0.05 0.46 0.38 84 1012.3
20260507161903 11 27 0.0 3.2 0.05 0.46 0.38 84 1012.4
20260507161349 11 53 0.0 3.2 0.05 0.46 0.38 84 1012.6
20260507161113 11 53 1.6 3.2 0.05 0.46 0.38 82 1012.6
20260507160339 12 58 1.6 3.2 0.03 0.43 0.36 78 1012.6
20260507155840 12 58 1.6 3.2 0.00 0.41 0.33 74 1012.2
20260507155610 12 40 1.6 6.4 0.00 0.41 0.33 73 1012.7
20260507154839 12 40 1.6 6.4 0.00 0.41 0.33 72 1012.3
20260507154337 12 36 1.6 4.8 0.00 0.41 0.33 74 1012.2
20260507154109 12 42 1.6 4.8 0.00 0.41 0.33 75 1012.1
20260507153338 12 48 1.6 4.8 0.00 0.41 0.33 76 1012.2
20260507152837 12 46 1.6 6.4 0.00 0.41 0.33 74 1012.2
20260507152336 12 46 1.6 6.4 0.00 0.41 0.33 76 1012.1
20260507151835 12 46 1.6 6.4 0.00 0.41 0.33 77 1012.2
20260507151335 12 42 1.6 6.4 0.00 0.41 0.33 76 1012.3
20260507150834 12 109 1.6 4.8 0.00 0.41 0.33 77 1012.3
20260507150336 12 62 1.6 4.8 0.00 0.41 0.33 78 1012.5
20260507145832 11 57 3.2 8.0 0.00 0.41 0.33 77 1012.3
20260507145327 11 45 3.2 8.0 0.00 0.41 0.33 77 1012.4
20260507144821 11 44 3.2 6.4 0.00 0.41 0.33 79 1012.3
20260507144311 11 44 3.2 6.4 0.00 0.41 0.33 78 1012.7
20260507143805 11 44 1.6 6.4 0.00 0.41 0.33 78 1012.6
20260507142749 11 52 1.6 6.4 0.00 0.41 0.33 81 1012.8
20260507142243 11 44 1.6 4.8 0.00 0.41 0.33 82 1012.9
20260507142009 11 44 3.2 6.4 0.00 0.41 0.33 82 1012.9
20260507141453 11 44 3.2 6.4 0.00 0.41 0.33 81 1012.8
20260507140717 12 46 1.6 4.8 0.00 0.43 0.33 83 1012.9
20260507140211 12 43 1.6 8.0 0.00 0.43 0.33 84 1013.0
20260507135701 12 43 1.6 8.0 0.00 0.43 0.33 83 1013.1
20260507135155 12 43 1.6 4.8 0.00 0.43 0.33 85 1013.1
20260507134649 12 43 1.6 3.2 0.00 0.43 0.33 85 1013.1
20260507134139 12 43 1.6 4.8 0.00 0.46 0.33 86 1013.1
20260507133639 12 43 3.2 4.8 0.00 0.51 0.33 86 1012.9
20260507133140 12 74 1.6 6.4 0.00 0.51 0.33 88 1013.0
20260507132639 12 40 1.6 6.4 0.00 0.53 0.33 88 1012.9
20260507132138 12 40 3.2 6.4 0.00 0.53 0.33 88 1013.0
20260507131637 12 40 3.2 6.4 0.00 0.53 0.33 88 1013.0
20260507131137 12 40 3.2 4.8 0.00 0.53 0.33 89 1012.9
20260507130635 12 40 3.2 6.4 0.00 0.53 0.33 88 1012.8
20260507130134 12 40 3.2 6.4 0.00 0.56 0.33 88 1012.8
20260507125632 12 39 3.2 6.4 0.00 0.56 0.33 89 1012.7
20260507125131 12 46 3.2 6.4 0.00 0.56 0.33 90 1012.8
20260507124632 12 44 1.6 6.4 0.00 0.58 0.33 91 1012.9
20260507124129 12 39 1.6 4.8 0.00 0.58 0.33 90 1012.9
20260507123630 12 49 1.6 4.8 0.00 0.58 0.33 91 1012.9
20260507123129 11 49 1.6 6.4 0.00 0.58 0.33 92 1012.8
20260507122627 11 49 3.2 6.4 0.00 0.61 0.33 91 1012.7
20260507122121 11 48 3.2 6.4 0.00 0.61 0.33 91 1012.6
20260507121621 11 42 3.2 6.4 0.00 0.64 0.33 91 1012.3
20260507121352 11 42 3.2 6.4 0.00 0.64 0.33 92 1012.4
20260507120854 11 42 3.2 6.4 0.00 0.64 0.33 92 1012.5
20260507120350 11 34 3.2 4.8 0.00 0.64 0.33 92 1012.4
20260507115619 11 35 1.6 4.8 0.00 0.64 0.33 94 1012.5
20260507115119 11 35 1.6 4.8 0.00 0.64 0.33 94 1012.5
20260507114618 11 35 1.6 4.8 0.00 0.64 0.33 95 1012.3
20260507114117 11 35 1.6 4.8 0.00 0.64 0.33 95 1012.3
20260507113617 11 35 0.0 3.2 0.00 0.64 0.33 95 1012.3
20260507113116 11 45 1.6 4.8 0.00 0.64 0.33 95 1012.2
20260507112613 11 45 3.2 4.8 0.00 0.64 0.33 95 1012.1
20260507112111 11 45 1.6 4.8 0.00 0.64 0.33 96 1011.9
20260507111611 11 45 1.6 4.8 0.00 0.64 0.33 96 1011.9
20260507111112 11 45 1.6 3.2 0.00 0.66 0.33 96 1012.0
20260507110604 11 45 1.6 3.2 0.00 0.66 0.33 96 1011.8
20260507110105 11 45 1.6 3.2 0.00 0.66 0.33 96 1011.7
20260507105609 11 45 0.0 3.2 0.00 0.66 0.33 96 1011.9
20260507105103 11 45 0.0 1.6 0.00 0.66 0.33 96 1011.9
20260507104603 11 45 0.0 1.6 0.00 0.66 0.33 96 1012.0
20260507104103 11 45 0.0 0.0 0.00 0.66 0.33 96 1012.1
20260507103603 11 45 0.0 1.6 0.00 0.66 0.33 96 1012.1
20260507102602 11 45 0.0 1.6 0.00 0.66 0.33 96 1011.8
20260507102103 11 45 0.0 1.6 0.00 0.66 0.33 96 1011.8
20260507101602 11 45 0.0 3.2 0.00 0.66 0.33 95 1011.8
20260507101333 11 45 1.6 3.2 0.00 0.66 0.33 96 1011.7
20260507100601 11 45 0.0 3.2 0.00 0.66 0.33 95 1011.4
20260507095602 11 45 1.6 3.2 0.00 0.66 0.33 96 1011.5
20260507095326 11 45 1.6 1.6 0.00 0.66 0.33 95 1011.4
20260507094053 11 45 0.0 1.6 0.00 0.66 0.33 95 1011.7
20260507093824 11 45 0.0 1.6 0.00 0.66 0.33 95 1011.7
20260507093053 11 45 0.0 1.6 0.00 0.66 0.33 94 1011.8
20260507092551 11 45 0.0 3.2 0.00 0.66 0.33 94 1011.6
20260507092051 11 45 1.6 3.2 0.00 0.66 0.33 94 1011.6
20260507091550 11 45 0.0 3.2 0.00 0.66 0.33 94 1011.5
20260507091049 11 45 0.0 3.2 0.00 0.66 0.33 94 1011.6
20260507090547 11 45 1.6 3.2 0.00 0.66 0.33 94 1011.4
20260507090045 11 45 1.6 4.8 0.00 0.66 0.33 94 1011.4
20260507085817 11 45 1.6 4.8 0.00 0.66 0.33 94 1011.2
20260507085313 11 45 1.6 4.8 0.00 0.66 0.33 94 1011.1
20260507084543 11 48 1.6 6.4 0.00 0.66 0.33 95 1011.1
20260507084043 11 44 1.6 6.4 0.00 0.66 0.33 95 1011.2
20260507083543 11 43 1.6 4.8 0.00 0.66 0.33 95 1011.1
20260507083043 11 43 1.6 4.8 0.00 0.66 0.33 95 1011.1
20260507082543 11 43 1.6 4.8 0.00 0.66 0.33 95 1011.2
20260507082043 11 43 1.6 3.2 0.00 0.66 0.33 96 1011.2
20260507081543 11 43 0.0 3.2 0.00 0.66 0.33 96 1011.3
20260507081042 11 43 0.0 1.6 0.00 0.66 0.33 96 1011.2
20260507080543 11 43 1.6 3.2 0.00 0.66 0.33 96 1011.3
20260507080043 11 43 1.6 3.2 0.00 0.66 0.33 96 1011.1
20260507075817 11 43 0.0 3.2 0.00 0.66 0.33 96 1011.3
20260507075043 11 43 0.0 3.2 0.00 0.66 0.33 96 1011.3
20260507074543 12 43 1.6 3.2 0.00 0.66 0.33 96 1011.2
20260507074043 12 43 1.6 4.8 0.00 0.66 0.33 95 1010.8
20260507073543 12 43 1.6 4.8 0.00 0.66 0.33 96 1010.7
20260507073042 12 43 1.6 4.8 0.00 0.66 0.33 96 1010.6
20260507072543 12 43 1.6 3.2 0.00 0.66 0.33 96 1010.5
20260507072043 12 43 1.6 6.4 0.00 0.66 0.33 96 1010.6
20260507071543 12 43 3.2 6.4 0.00 0.66 0.33 96 1010.6
20260507071043 12 47 3.2 6.4 0.00 0.66 0.33 96 1010.4
20260507070543 12 38 1.6 6.4 0.00 0.66 0.33 96 1010.4
20260507070044 12 51 1.6 4.8 0.00 0.66 0.33 97 1010.4
20260507065814 12 46 1.6 4.8 0.00 0.66 0.33 97 1010.5
20260507065315 12 46 1.6 4.8 0.00 0.66 0.33 97 1010.3
20260507064543 12 46 1.6 4.8 0.00 0.66 0.33 97 1010.5
20260507064043 13 52 1.6 4.8 0.00 0.66 0.33 97 1010.5
20260507063542 13 143 1.6 6.4 0.00 0.66 0.33 97 1010.7
20260507063043 13 63 3.2 6.4 0.00 0.66 0.33 97 1010.6
20260507062543 13 33 3.2 6.4 0.00 0.66 0.33 97 1010.2
20260507062314 13 46 3.2 6.4 0.00 0.66 0.33 97 1010.7
20260507061540 13 36 3.2 6.4 0.00 0.66 0.33 97 1010.7
20260507061040 13 36 1.6 6.4 0.03 0.66 0.33 97 1010.6
20260507060538 13 36 1.6 4.8 0.05 0.66 0.33 97 1010.9
20260507060028 13 294 1.6 6.4 0.05 0.66 0.33 97 1011.1
20260507055522 13 99 1.6 6.4 0.05 0.66 0.33 98 1010.8
20260507055020 13 221 1.6 6.4 0.10 0.66 0.33 98 1010.6
20260507054517 13 221 1.6 6.4 0.20 0.66 0.33 98 1010.9
20260507054015 13 38 3.2 6.4 0.25 0.66 0.33 98 1010.5
20260507053744 14 38 3.2 6.4 0.28 0.66 0.33 97 1010.4
20260507053010 14 36 3.2 4.8 0.28 0.66 0.33 97 1010.2
20260507052510 14 36 3.2 4.8 0.28 0.66 0.33 97 1010.2
20260507052011 14 36 3.2 4.8 0.28 0.66 0.33 97 1009.7
20260507051509 14 51 1.6 6.4 0.30 0.66 0.33 97 1009.1
20260507051239 14 46 3.2 6.4 0.28 0.64 0.30 97 1009.0
20260507050508 15 45 1.6 4.8 0.28 0.61 0.28 97 1009.9
20260507045507 15 45 1.6 8.0 0.28 0.61 0.28 97 1010.0
20260507045006 14 315 1.6 8.0 0.25 0.56 0.25 96 1009.6
20260507044504 15 94 3.2 8.0 0.15 0.43 0.13 96 1009.8
20260507044005 15 46 3.2 8.0 0.15 0.41 0.08 96 1010.5
20260507043459 15 36 3.2 8.0 0.13 0.38 0.05 96 1010.4
20260507042949 15 43 3.2 8.0 0.13 0.38 0.05 95 1010.2
20260507042448 15 63 3.2 8.0 0.13 0.38 0.05 95 1010.1
20260507041931 16 53 3.2 6.4 0.13 0.38 0.05 96 1010.1
20260507041417 16 36 1.6 6.4 0.10 0.36 0.03 96 1010.0
20260507040915 16 52 1.6 4.8 0.10 0.36 0.03 95 1009.8
20260507040414 17 40 1.6 4.8 0.08 0.33 0.00 95 1010.4
20260507035913 17 29 1.6 4.8 0.08 0.33 0.33 95 1010.5
20260507035145 17 34 1.6 6.4 0.05 0.30 0.30 94 1010.4
20260507034413 17 34 1.6 6.4 0.03 0.28 0.28 94 1010.4
20260507033913 17 26 1.6 4.8 0.00 0.25 0.25 94 1010.1
20260507033414 17 26 1.6 4.8 0.00 0.25 0.25 95 1010.1
20260507032913 17 244 0.0 3.2 0.00 0.25 0.25 94 1010.2
20260507032413 17 244 0.0 3.2 0.00 0.25 0.25 93 1009.8
20260507031913 17 244 0.0 0.0 0.00 0.25 0.25 93 1009.6
20260507031413 17 244 0.0 0.0 0.00 0.25 0.25 92 1009.5
20260507030916 17 244 0.0 1.6 0.00 0.25 0.25 92 1009.7
20260507030413 17 244 0.0 1.6 0.00 0.25 0.25 93 1009.6
20260507030159 17 244 0.0 0.0 0.00 0.25 0.25 93 1009.4
20260507025413 17 244 0.0 0.0 0.00 0.25 0.25 92 1009.6
20260507024912 17 244 0.0 0.0 0.00 0.25 0.25 92 1009.7
20260507024413 17 244 0.0 1.6 0.00 0.25 0.25 92 1009.5
20260507023914 17 244 0.0 1.6 0.00 0.25 0.25 92 1009.4
20260507023410 17 244 0.0 0.0 0.00 0.25 0.25 92 1009.6
20260507022909 17 244 0.0 0.0 0.00 0.25 0.25 92 1009.6
20260507022644 18 244 0.0 0.0 0.00 0.25 0.25 91 1009.7
20260507022140 18 244 0.0 1.6 0.00 0.25 0.25 91 1009.7
20260507021414 18 244 0.0 1.6 0.00 0.25 0.25 91 1009.5
20260507020907 18 244 0.0 1.6 0.00 0.25 0.25 90 1009.2
20260507015906 18 244 0.0 0.0 0.00 0.25 0.25 89 1008.8
20260507015401 18 244 0.0 1.6 0.00 0.25 0.25 89 1008.7
20260507014857 18 244 1.6 3.2 0.00 0.25 0.25 89 1008.8
20260507014354 18 244 1.6 3.2 0.00 0.25 0.25 89 1008.6
20260507013855 18 244 0.0 1.6 0.00 0.25 0.25 89 1008.8
20260507013355 18 244 0.0 3.2 0.00 0.25 0.25 89 1009.1
20260507012855 18 244 0.0 3.2 0.00 0.25 0.25 89 1009.2
20260507012626 18 244 0.0 1.6 0.00 0.25 0.25 89 1009.2
20260507011900 18 244 0.0 1.6 0.00 0.25 0.25 88 1009.2
20260507011352 18 244 0.0 3.2 0.00 0.25 0.25 88 1009.5
20260507010853 19 244 1.6 3.2 0.00 0.25 0.25 87 1009.5
20260507010353 19 244 1.6 4.8 0.00 0.25 0.25 86 1009.5
20260507010121 19 279 1.6 4.8 0.00 0.25 0.25 86 1009.2
20260507005349 19 239 0.0 1.6 0.00 0.25 0.25 86 1009.1
20260507004846 20 239 1.6 6.4 0.00 0.25 0.25 85 1009.1
20260507004357 20 239 4.8 8.0 0.00 0.25 0.25 85 1008.8
20260507003344 20 244 4.8 9.7 0.00 0.25 0.25 85 1008.9
20260507003119 20 204 6.4 11.3 0.00 0.25 0.25 84 1008.8
20260507002558 20 205 6.4 11.3 0.00 0.25 0.25 84 1008.7
20260507001319 20 198 1.6 6.4 0.00 0.25 0.25 84 1008.6
20260507000801 20 245 1.6 6.4 0.00 0.25 0.25 84 1008.5
20260507000254 20 221 4.8 9.7 0.00 0.25 0.25 84 1008.3
20260506235749 20 215 4.8 9.7 0.00 0.25 0.25 84 1008.3
20260506235238 20 223 4.8 9.7 0.00 0.25 0.25 83 1008.5
20260506235003 20 229 3.2 6.4 0.00 0.25 0.25 83 1008.6
20260506234227 21 211 3.2 6.4 0.00 0.25 0.25 82 1008.6
20260506233717 21 213 3.2 8.0 0.00 0.25 0.25 82 1008.7
20260506233210 21 223 4.8 14.5 0.00 0.25 0.25 82 1008.7
20260506232936 21 252 4.8 14.5 0.00 0.25 0.25 82 1008.5
20260506232156 21 248 4.8 9.7 0.00 0.25 0.25 81 1008.5
20260506231659 21 228 4.8 9.7 0.00 0.25 0.25 81 1008.4
20260506231153 21 212 4.8 14.5 0.00 0.25 0.25 81 1008.2
20260506230652 21 244 4.8 14.5 0.00 0.25 0.25 81 1008.0
20260506230153 21 242 6.4 19.3 0.00 0.25 0.25 81 1008.1